TAM3774 SBBR-SBCT

Flight info

Callsign TAM3774
Flight time N/A
Altitude 36000
Route KUKOL UZ5 UMGUL
Aircraft A321/M-SDE3FGHIRWY/LB1

Departure

Time 2026-05-07 22:26
Airport Presidente Juscelino Kubitschek International Airport (SBBR)

Arrival

Time N/A
Airport Curitiba-Afonso Pena International Airport (SBCT)
Time Latitude Longitude Altitude Speed Heading
2026-05-07 21:49 -15.87022 -47.92000 3465 ft 0 kts 266°
2026-05-07 22:15 -15.87021 -47.91986 3464 ft 4 kts 266°
2026-05-07 22:15 -15.87020 -47.91958 3464 ft 4 kts 282°
2026-05-07 22:16 -15.87030 -47.91940 3464 ft 2 kts 332°
2026-05-07 22:16 -15.87052 -47.91927 3463 ft 4 kts 326°
2026-05-07 22:16 -15.87067 -47.91915 3464 ft 0 kts 317°
2026-05-07 22:16 -15.87054 -47.91928 3463 ft 4 kts 320°
2026-05-07 22:17 -15.87032 -47.91926 3464 ft 4 kts 15°
2026-05-07 22:17 -15.87020 -47.91907 3464 ft 4 kts 73°
2026-05-07 22:17 -15.87017 -47.91879 3464 ft 4 kts 86°
2026-05-07 22:17 -15.87017 -47.91865 3464 ft 0 kts 86°
2026-05-07 22:19 -15.87016 -47.91859 3464 ft 4 kts 86°
2026-05-07 22:19 -15.87013 -47.91803 3465 ft 9 kts 86°
2026-05-07 22:20 -15.87012 -47.91778 3465 ft 0 kts 86°
2026-05-07 22:20 -15.87011 -47.91762 3465 ft 6 kts 86°
2026-05-07 22:20 -15.86989 -47.91698 3464 ft 13 kts 32°
2026-05-07 22:20 -15.86875 -47.91698 3465 ft 17 kts 356°
2026-05-07 22:21 -15.86760 -47.91706 3465 ft 16 kts 356°
2026-05-07 22:21 -15.86656 -47.91715 3465 ft 14 kts 348°
2026-05-07 22:21 -15.86609 -47.91784 3464 ft 12 kts 268°
2026-05-07 22:21 -15.86615 -47.91869 3464 ft 13 kts 266°
2026-05-07 22:22 -15.86622 -47.91978 3464 ft 15 kts 266°
2026-05-07 22:22 -15.86629 -47.92082 3464 ft 14 kts 266°
2026-05-07 22:22 -15.86628 -47.92179 3464 ft 15 kts 287°
2026-05-07 22:22 -15.86573 -47.92290 3461 ft 16 kts 305°
2026-05-07 22:23 -15.86530 -47.92374 3461 ft 13 kts 278°
2026-05-07 22:23 -15.86531 -47.92465 3464 ft 11 kts 267°
2026-05-07 22:23 -15.86536 -47.92541 3464 ft 12 kts 265°
2026-05-07 22:23 -15.86544 -47.92652 3461 ft 19 kts 264°
2026-05-07 22:24 -15.86530 -47.92756 3468 ft 11 kts 318°
2026-05-07 22:24 -15.86477 -47.92767 3468 ft 5 kts 355°
2026-05-07 22:24 -15.86439 -47.92770 3467 ft 7 kts
2026-05-07 22:24 -15.86375 -47.92734 3464 ft 12 kts 33°
2026-05-07 22:25 -15.86355 -47.92696 3465 ft 0 kts 83°
2026-05-07 22:25 -15.86350 -47.92634 3465 ft 33 kts 86°
2026-05-07 22:25 -15.86319 -47.92155 3468 ft 98 kts 86°
2026-05-07 22:25 -15.86260 -47.91261 3468 ft 148 kts 86°
2026-05-07 22:26 -15.86183 -47.90067 3581 ft 177 kts 86°
2026-05-07 22:26 -15.86246 -47.88840 4317 ft 169 kts 112°
2026-05-07 22:26 -15.87100 -47.87989 4765 ft 185 kts 159°
2026-05-07 22:26 -15.88406 -47.87704 4997 ft 199 kts 168°
2026-05-07 22:27 -15.89834 -47.87491 5129 ft 217 kts 170°
2026-05-07 22:27 -15.91380 -47.87262 5268 ft 232 kts 169°
2026-05-07 22:27 -15.93029 -47.87001 5395 ft 247 kts 169°
2026-05-07 22:27 -15.94805 -47.86716 5490 ft 271 kts 174°
2026-05-07 22:28 -15.96718 -47.87005 5793 ft 288 kts 204°
2026-05-07 22:28 -15.98296 -47.88235 6335 ft 291 kts 233°
2026-05-07 22:28 -15.99441 -47.89974 6947 ft 293 kts 238°
2026-05-07 22:28 -16.00560 -47.91753 7583 ft 295 kts 238°
2026-05-07 22:29 -16.01686 -47.93543 8237 ft 297 kts 238°
2026-05-07 22:29 -16.02816 -47.95341 8888 ft 298 kts 239°
2026-05-07 22:29 -16.03954 -47.97151 9542 ft 300 kts 239°
2026-05-07 22:29 -16.05102 -47.98975 10179 ft 302 kts 239°
2026-05-07 22:30 -16.06286 -48.00858 10382 ft 322 kts 238°
2026-05-07 22:30 -16.07547 -48.02868 10503 ft 342 kts 238°
2026-05-07 22:30 -16.08873 -48.04973 10803 ft 353 kts 238°
2026-05-07 22:30 -16.10231 -48.07126 11305 ft 358 kts 238°
2026-05-07 22:31 -16.11602 -48.09299 11842 ft 361 kts 238°
2026-05-07 22:31 -16.12987 -48.11488 12370 ft 364 kts 238°
2026-05-07 22:31 -16.14383 -48.13698 12918 ft 367 kts 238°
2026-05-07 22:31 -16.15787 -48.15931 13418 ft 370 kts 238°
2026-05-07 22:32 -16.17199 -48.18180 13930 ft 373 kts 238°
2026-05-07 22:32 -16.18627 -48.20459 14384 ft 376 kts 238°
2026-05-07 22:32 -16.20060 -48.22745 14847 ft 379 kts 237°
2026-05-07 22:32 -16.21510 -48.25050 15280 ft 382 kts 237°
2026-05-07 22:33 -16.23134 -48.27248 15714 ft 385 kts 226°
2026-05-07 22:33 -16.25164 -48.29066 16146 ft 387 kts 214°
2026-05-07 22:33 -16.27710 -48.30508 16614 ft 389 kts 201°
2026-05-07 22:33 -16.30074 -48.31362 17021 ft 390 kts 197°
2026-05-07 22:34 -16.32661 -48.32249 17458 ft 392 kts 197°
2026-05-07 22:34 -16.35261 -48.33141 17906 ft 394 kts 197°
2026-05-07 22:34 -16.37869 -48.34036 18327 ft 396 kts 197°
2026-05-07 22:34 -16.40489 -48.34938 18674 ft 398 kts 197°
2026-05-07 22:35 -16.43121 -48.35851 19052 ft 399 kts 197°
2026-05-07 22:35 -16.45755 -48.36769 19421 ft 400 kts 197°
2026-05-07 22:35 -16.48401 -48.37695 19791 ft 402 kts 197°
2026-05-07 22:35 -16.51054 -48.38623 20155 ft 403 kts 197°
2026-05-07 22:36 -16.53719 -48.39549 20515 ft 404 kts 197°
2026-05-07 22:36 -16.56392 -48.40473 20873 ft 405 kts 197°
2026-05-07 22:36 -16.59074 -48.41396 21232 ft 407 kts 197°
2026-05-07 22:36 -16.61761 -48.42326 21589 ft 408 kts 197°
2026-05-07 22:37 -16.64461 -48.43259 21942 ft 409 kts 197°
2026-05-07 22:37 -16.67168 -48.44197 22297 ft 411 kts 197°
2026-05-07 22:37 -16.69946 -48.44886 22606 ft 412 kts 187°
2026-05-07 22:37 -16.72805 -48.45163 22931 ft 413 kts 184°
2026-05-07 22:38 -16.75672 -48.45402 23255 ft 414 kts 184°
2026-05-07 22:38 -16.78554 -48.45642 23589 ft 416 kts 184°
2026-05-07 22:38 -16.81443 -48.45877 23857 ft 417 kts 184°
2026-05-07 22:38 -16.84339 -48.46112 24130 ft 419 kts 184°
2026-05-07 22:39 -16.87249 -48.46356 24397 ft 420 kts 184°
2026-05-07 22:39 -16.90163 -48.46606 24667 ft 422 kts 185°
2026-05-07 22:39 -16.93094 -48.46855 24941 ft 423 kts 184°
2026-05-07 22:39 -16.96031 -48.47099 25214 ft 424 kts 184°
2026-05-07 22:40 -16.98982 -48.47343 25482 ft 426 kts 185°
2026-05-07 22:40 -17.01939 -48.47587 25755 ft 427 kts 185°
2026-05-07 22:40 -17.04910 -48.47835 26019 ft 429 kts 185°
2026-05-07 22:40 -17.07889 -48.48085 26280 ft 430 kts 185°
2026-05-07 22:41 -17.10878 -48.48337 26538 ft 432 kts 185°
2026-05-07 22:41 -17.13878 -48.48588 26807 ft 433 kts 185°
2026-05-07 22:41 -17.16889 -48.48839 27081 ft 435 kts 185°
2026-05-07 22:41 -17.19687 -48.49072 27304 ft 437 kts 185°
2026-05-07 22:42 -17.22780 -48.49330 27573 ft 438 kts 185°
2026-05-07 22:42 -17.25746 -48.49578 27829 ft 440 kts 185°
2026-05-07 22:42 -17.28860 -48.49839 28096 ft 441 kts 185°
2026-05-07 22:42 -17.31913 -48.50098 28339 ft 443 kts 185°
2026-05-07 22:43 -17.34983 -48.50357 28593 ft 444 kts 185°
2026-05-07 22:43 -17.37969 -48.50609 28835 ft 446 kts 185°
2026-05-07 22:43 -17.41146 -48.50878 29058 ft 447 kts 185°
2026-05-07 22:43 -17.44252 -48.51143 29293 ft 449 kts 185°
2026-05-07 22:44 -17.47369 -48.51407 29530 ft 450 kts 185°
2026-05-07 22:44 -17.50358 -48.51658 29759 ft 451 kts 185°
2026-05-07 22:44 -17.53437 -48.51916 29983 ft 453 kts 186°
2026-05-07 22:44 -17.56491 -48.52173 30187 ft 454 kts 186°
2026-05-07 22:45 -17.59717 -48.52445 30398 ft 455 kts 186°
2026-05-07 22:45 -17.62758 -48.52700 30679 ft 454 kts 186°
2026-05-07 22:45 -17.65991 -48.52967 31011 ft 452 kts 186°
2026-05-07 22:45 -17.69126 -48.53227 31334 ft 451 kts 186°
2026-05-07 22:46 -17.72225 -48.53486 31666 ft 449 kts 186°
2026-05-07 22:46 -17.75334 -48.53757 31985 ft 447 kts 186°
2026-05-07 22:46 -17.78433 -48.54037 32316 ft 446 kts 186°
2026-05-07 22:46 -17.81519 -48.54319 32646 ft 445 kts 187°
2026-05-07 22:47 -17.84599 -48.54602 32981 ft 443 kts 187°
2026-05-07 22:47 -17.87666 -48.54882 33309 ft 442 kts 187°
2026-05-07 22:47 -17.90726 -48.55156 33630 ft 440 kts 187°
2026-05-07 22:47 -17.93774 -48.55428 33951 ft 439 kts 187°
2026-05-07 22:48 -17.96815 -48.55701 34233 ft 438 kts 187°
2026-05-07 22:48 -17.99738 -48.55965 34488 ft 437 kts 187°
2026-05-07 22:48 -18.02760 -48.56237 34769 ft 435 kts 187°
2026-05-07 22:48 -18.05731 -48.56502 35029 ft 434 kts 187°
2026-05-07 22:49 -18.08733 -48.56772 35280 ft 432 kts 188°
2026-05-07 22:49 -18.11726 -48.57043 35528 ft 431 kts 188°
2026-05-07 22:49 -18.14710 -48.57313 35781 ft 430 kts 188°
2026-05-07 22:49 -18.17688 -48.57581 35953 ft 429 kts 188°
2026-05-07 22:50 -18.20596 -48.57840 35992 ft 427 kts 188°
2026-05-07 22:50 -18.26504 -48.58369 36001 ft 425 kts 188°
2026-05-07 22:51 -18.32402 -48.58907 35997 ft 425 kts 188°
2026-05-07 22:51 -18.38301 -48.59438 35997 ft 425 kts 188°
2026-05-07 22:52 -18.44160 -48.59961 35996 ft 425 kts 188°
2026-05-07 22:52 -18.50045 -48.60494 36001 ft 425 kts 188°
2026-05-07 22:53 -18.54988 -48.60940 36010 ft 425 kts 188°
2026-05-07 22:53 -18.60889 -48.61469 36016 ft 425 kts 188°
2026-05-07 22:54 -18.66748 -48.62000 36017 ft 426 kts 188°
2026-05-07 22:54 -18.72647 -48.62540 36019 ft 425 kts 188°
2026-05-07 22:55 -18.78589 -48.63077 36021 ft 426 kts 188°
2026-05-07 22:55 -18.84445 -48.63602 36029 ft 425 kts 188°
2026-05-07 22:56 -18.90336 -48.64140 36026 ft 425 kts 188°
2026-05-07 22:56 -18.96222 -48.64676 36023 ft 425 kts 188°
2026-05-07 22:57 -19.02109 -48.65209 36023 ft 425 kts 188°
2026-05-07 22:57 -19.08004 -48.65742 36019 ft 425 kts 188°
2026-05-07 22:58 -19.13908 -48.66281 36014 ft 426 kts 188°
2026-05-07 22:58 -19.19821 -48.66830 36016 ft 427 kts 189°
2026-05-07 22:59 -19.25730 -48.67439 36015 ft 426 kts 189°
2026-05-07 22:59 -19.31634 -48.68070 35997 ft 426 kts 189°
2026-05-07 23:00 -19.37537 -48.68695 36009 ft 426 kts 189°
2026-05-07 23:00 -19.43435 -48.69311 36014 ft 426 kts 189°
2026-05-07 23:01 -19.49327 -48.69923 36017 ft 425 kts 189°
2026-05-07 23:01 -19.55222 -48.70533 36012 ft 425 kts 189°
2026-05-07 23:02 -19.61113 -48.71139 36013 ft 425 kts 189°
2026-05-07 23:02 -19.67005 -48.71749 36011 ft 425 kts 189°
2026-05-07 23:03 -19.72855 -48.72362 36008 ft 425 kts 189°
2026-05-07 23:03 -19.78739 -48.72979 36003 ft 425 kts 189°
2026-05-07 23:04 -19.84625 -48.73592 36001 ft 425 kts 189°
2026-05-07 23:04 -19.90512 -48.74209 35993 ft 425 kts 189°
2026-05-07 23:05 -19.96397 -48.74823 35991 ft 425 kts 189°
2026-05-07 23:05 -20.02278 -48.75436 35990 ft 425 kts 189°
2026-05-07 23:06 -20.08172 -48.76049 35985 ft 425 kts 189°
2026-05-07 23:06 -20.14062 -48.76658 35991 ft 425 kts 189°
2026-05-07 23:07 -20.19957 -48.77273 35989 ft 425 kts 190°
2026-05-07 23:07 -20.25846 -48.77897 35990 ft 426 kts 190°
2026-05-07 23:08 -20.31750 -48.78514 35990 ft 426 kts 189°
2026-05-07 23:08 -20.37611 -48.79127 35998 ft 426 kts 190°
2026-05-07 23:09 -20.43513 -48.79748 35995 ft 426 kts 190°
2026-05-07 23:09 -20.49404 -48.80373 35993 ft 426 kts 190°
2026-05-07 23:10 -20.55307 -48.80989 35990 ft 425 kts 190°
2026-05-07 23:10 -20.61203 -48.81607 35990 ft 426 kts 190°
2026-05-07 23:11 -20.67096 -48.82213 35996 ft 426 kts 190°
2026-05-07 23:11 -20.72956 -48.82979 35994 ft 424 kts 193°
2026-05-07 23:12 -20.78781 -48.83964 35992 ft 424 kts 193°
2026-05-07 23:12 -20.84602 -48.84962 35992 ft 424 kts 193°
2026-05-07 23:13 -20.90398 -48.85902 36002 ft 425 kts 193°
2026-05-07 23:13 -20.96246 -48.86820 36000 ft 424 kts 193°
2026-05-07 23:14 -21.02086 -48.87742 35992 ft 424 kts 193°
2026-05-07 23:14 -21.07927 -48.88675 35990 ft 424 kts 193°
2026-05-07 23:15 -21.13762 -48.89613 35991 ft 424 kts 193°
2026-05-07 23:15 -21.19592 -48.90552 35999 ft 424 kts 193°
2026-05-07 23:16 -21.25431 -48.91481 35993 ft 424 kts 193°
2026-05-07 23:16 -21.31258 -48.92404 35988 ft 423 kts 193°
2026-05-07 23:17 -21.37083 -48.93338 35987 ft 423 kts 193°
2026-05-07 23:17 -21.42908 -48.94284 35987 ft 423 kts 193°
2026-05-07 23:18 -21.48737 -48.95220 35989 ft 423 kts 193°
2026-05-07 23:18 -21.54563 -48.96150 35987 ft 423 kts 193°
2026-05-07 23:19 -21.60348 -48.97081 35987 ft 423 kts 193°
2026-05-07 23:19 -21.66165 -48.98033 35981 ft 422 kts 194°
2026-05-07 23:20 -21.71896 -48.99312 35991 ft 420 kts 198°
2026-05-07 23:20 -21.77574 -49.00808 35988 ft 420 kts 198°
2026-05-07 23:21 -21.83255 -49.02277 35986 ft 420 kts 198°
2026-05-07 23:21 -21.88955 -49.03680 35986 ft 420 kts 197°
2026-05-07 23:22 -21.94663 -49.05072 35994 ft 420 kts 197°
2026-05-07 23:22 -22.00367 -49.06476 35993 ft 420 kts 198°
2026-05-07 23:23 -22.06065 -49.07881 36001 ft 420 kts 198°
2026-05-07 23:23 -22.11759 -49.09291 35998 ft 421 kts 198°
2026-05-07 23:24 -22.17459 -49.10703 36005 ft 421 kts 198°
2026-05-07 23:24 -22.23179 -49.12114 36011 ft 422 kts 198°
2026-05-07 23:25 -22.28904 -49.13532 36016 ft 422 kts 198°
2026-05-07 23:25 -22.34623 -49.14953 36018 ft 422 kts 198°
2026-05-07 23:26 -22.40342 -49.16369 36012 ft 422 kts 198°
2026-05-07 23:26 -22.45980 -49.17924 36006 ft 421 kts 200°
2026-05-07 23:27 -22.54489 -49.20428 35993 ft 421 kts 200°
2026-05-07 23:27 -22.60117 -49.22024 35988 ft 421 kts 199°
2026-05-07 23:28 -22.65796 -49.23569 35986 ft 421 kts 199°
2026-05-07 23:28 -22.71466 -49.25095 35987 ft 421 kts 199°
2026-05-07 23:29 -22.77175 -49.26662 35989 ft 421 kts 200°
2026-05-07 23:29 -22.82754 -49.28206 35989 ft 420 kts 200°
2026-05-07 23:30 -22.88470 -49.29783 35985 ft 420 kts 200°
2026-05-07 23:30 -22.94134 -49.31338 35980 ft 421 kts 200°
2026-05-07 23:31 -22.99812 -49.32893 35980 ft 421 kts 200°
2026-05-07 23:31 -23.05494 -49.34459 35986 ft 422 kts 200°
2026-05-07 23:32 -23.11180 -49.36022 35978 ft 422 kts 200°
2026-05-07 23:32 -23.16869 -49.37592 35974 ft 422 kts 200°
2026-05-07 23:33 -23.22565 -49.39159 35973 ft 423 kts 200°
2026-05-07 23:33 -23.28297 -49.40598 35979 ft 424 kts 198°
2026-05-07 23:34 -23.34061 -49.41957 35973 ft 424 kts 199°
2026-05-07 23:34 -23.39820 -49.43333 35969 ft 424 kts 199°
2026-05-07 23:35 -23.45548 -49.44813 35962 ft 422 kts 201°
2026-05-07 23:35 -23.51177 -49.46580 35963 ft 421 kts 203°
2026-05-07 23:36 -23.56587 -49.48363 35974 ft 421 kts 203°
2026-05-07 23:36 -23.62210 -49.50158 35972 ft 421 kts 203°
2026-05-07 23:37 -23.67862 -49.51836 35971 ft 423 kts 201°
2026-05-07 23:37 -23.70718 -49.52619 35446 ft 428 kts 201°
2026-05-07 23:37 -23.73670 -49.53240 34652 ft 439 kts 192°
2026-05-07 23:38 -23.75574 -49.53373 34209 ft 446 kts 186°
2026-05-07 23:38 -23.79748 -49.53101 33087 ft 457 kts 181°
2026-05-07 23:38 -23.82897 -49.52808 32604 ft 453 kts 181°
2026-05-07 23:38 -23.86018 -49.52525 32052 ft 451 kts 181°
2026-05-07 23:39 -23.89141 -49.52248 31483 ft 448 kts 180°
2026-05-07 23:39 -23.92244 -49.51978 30935 ft 446 kts 180°
2026-05-07 23:39 -23.95334 -49.51711 30403 ft 444 kts 179°
2026-05-07 23:39 -23.97413 -49.51529 30041 ft 443 kts 179°
2026-05-07 23:40 -24.00446 -49.51262 29450 ft 441 kts 179°
2026-05-07 23:40 -24.03486 -49.50989 28946 ft 436 kts 179°
2026-05-07 23:40 -24.06500 -49.50717 28432 ft 433 kts 179°
2026-05-07 23:40 -24.09488 -49.50446 27925 ft 430 kts 179°
2026-05-07 23:41 -24.12460 -49.50180 27415 ft 427 kts 179°
2026-05-07 23:41 -24.15407 -49.49918 26945 ft 423 kts 179°
2026-05-07 23:41 -24.18334 -49.49658 26466 ft 420 kts 179°
2026-05-07 23:41 -24.21237 -49.49400 26005 ft 416 kts 179°
2026-05-07 23:42 -24.24108 -49.49144 25554 ft 413 kts 179°
2026-05-07 23:42 -24.26962 -49.48890 25112 ft 409 kts 179°
2026-05-07 23:42 -24.29788 -49.48639 24677 ft 406 kts 179°
2026-05-07 23:42 -24.32592 -49.48387 24252 ft 403 kts 179°
2026-05-07 23:43 -24.35385 -49.48136 23817 ft 401 kts 179°
2026-05-07 23:43 -24.38160 -49.47886 23353 ft 399 kts 179°
2026-05-07 23:43 -24.40918 -49.47637 22912 ft 396 kts 179°
2026-05-07 23:43 -24.43648 -49.47391 22469 ft 392 kts 179°
2026-05-07 23:44 -24.46356 -49.47148 22040 ft 389 kts 179°
2026-05-07 23:44 -24.49042 -49.46905 21609 ft 386 kts 178°
2026-05-07 23:44 -24.51714 -49.46664 21191 ft 384 kts 178°
2026-05-07 23:44 -24.54371 -49.46427 20742 ft 382 kts 178°
2026-05-07 23:45 -24.57018 -49.46191 20308 ft 381 kts 178°
2026-05-07 23:45 -24.59651 -49.45955 19880 ft 379 kts 178°
2026-05-07 23:45 -24.62246 -49.45721 19455 ft 378 kts 178°
2026-05-07 23:45 -24.64863 -49.45487 19026 ft 377 kts 177°
2026-05-07 23:46 -24.67477 -49.45252 18605 ft 376 kts 177°
2026-05-07 23:46 -24.70082 -49.45018 18159 ft 376 kts 177°
2026-05-07 23:46 -24.72688 -49.44785 17694 ft 375 kts 177°
2026-05-07 23:46 -24.75276 -49.44553 17287 ft 373 kts 176°
2026-05-07 23:47 -24.77855 -49.44318 16872 ft 371 kts 176°
2026-05-07 23:47 -24.80415 -49.44080 16457 ft 369 kts 176°
2026-05-07 23:47 -24.82967 -49.43846 16052 ft 367 kts 176°
2026-05-07 23:47 -24.85509 -49.43619 15649 ft 366 kts 176°
2026-05-07 23:48 -24.88040 -49.43392 15253 ft 364 kts 176°
2026-05-07 23:48 -24.90563 -49.43165 14854 ft 363 kts 176°
2026-05-07 23:48 -24.93076 -49.42940 14455 ft 362 kts 176°
2026-05-07 23:48 -24.95584 -49.42712 14053 ft 361 kts 176°
2026-05-07 23:49 -24.98086 -49.42485 13637 ft 361 kts 176°
2026-05-07 23:49 -25.00584 -49.42259 13211 ft 359 kts 176°
2026-05-07 23:49 -25.03068 -49.42034 12804 ft 357 kts 176°
2026-05-07 23:49 -25.05541 -49.41810 12382 ft 356 kts 176°
2026-05-07 23:50 -25.07974 -49.41591 11990 ft 354 kts 176°
2026-05-07 23:50 -25.10427 -49.41368 11579 ft 353 kts 176°
2026-05-07 23:50 -25.12868 -49.41144 11177 ft 351 kts 176°
2026-05-07 23:50 -25.15298 -49.40919 10766 ft 350 kts 177°
2026-05-07 23:51 -25.17718 -49.40696 10351 ft 348 kts 177°
2026-05-07 23:51 -25.20104 -49.40476 10145 ft 338 kts 177°
2026-05-07 23:51 -25.22388 -49.40267 9837 ft 323 kts 177°
2026-05-07 23:51 -25.24607 -49.40066 9494 ft 315 kts 178°
2026-05-07 23:52 -25.26758 -49.39871 9271 ft 307 kts 178°
2026-05-07 23:52 -25.28888 -49.39680 8869 ft 306 kts 178°
2026-05-07 23:52 -25.31011 -49.39483 8441 ft 307 kts 175°
2026-05-07 23:52 -25.33102 -49.38863 7947 ft 314 kts 155°
2026-05-07 23:53 -25.34931 -49.37567 7566 ft 313 kts 136°
2026-05-07 23:53 -25.36480 -49.35875 7175 ft 313 kts 133°
2026-05-07 23:53 -25.38005 -49.34163 6787 ft 312 kts 133°
2026-05-07 23:53 -25.39528 -49.32462 6379 ft 307 kts 133°
2026-05-07 23:54 -25.40988 -49.30835 6009 ft 291 kts 133°
2026-05-07 23:54 -25.42375 -49.29288 5673 ft 277 kts 133°
2026-05-07 23:54 -25.43717 -49.27789 5288 ft 270 kts 133°
2026-05-07 23:54 -25.45005 -49.26348 4958 ft 257 kts 132°
2026-05-07 23:55 -25.46222 -49.24990 4640 ft 239 kts 132°
2026-05-07 23:55 -25.47335 -49.23749 4353 ft 215 kts 131°
2026-05-07 23:55 -25.48322 -49.22647 4071 ft 192 kts 132°
2026-05-07 23:55 -25.49225 -49.21634 3836 ft 178 kts 132°
2026-05-07 23:56 -25.50055 -49.20705 3628 ft 168 kts 133°
2026-05-07 23:56 -25.50863 -49.19800 3413 ft 163 kts 132°
2026-05-07 23:56 -25.51652 -49.18918 3184 ft 159 kts 133°
2026-05-07 23:56 -25.52278 -49.18218 3016 ft 158 kts 133°
2026-05-07 23:57 -25.52872 -49.17553 2983 ft 122 kts 136°
2026-05-07 23:57 -25.53367 -49.16995 2982 ft 87 kts 135°